Time,TemperatureF,DewpointF,PressureIn,WindDirection,WindDirectionDegrees,WindSpeedMPH,WindSpeedGustMPH,Humidity,HourlyPrecipIn,Conditions,Clouds,dailyrainin,SoftwareType,DateUTC
2013-07-22 00:01:00,71.3,63.1,29.86,East,98,0.0,2.0,75,0.00,,,0.00,WUHU216DAVISVP2,2013-07-22 04:01:00,
2013-07-22 00:06:00,71.3,63.1,29.86,SSW,198,0.0,1.0,75,0.00,,,0.00,WUHU216DAVISVP2,2013-07-22 04:06:00,
2013-07-22 00:11:00,71.2,63.0,29.86,SSE,165,0.0,1.0,75,0.00,,,0.00,WUHU216DAVISVP2,2013-07-22 04:11:00,
2013-07-22 00:16:00,71.1,62.9,29.86,SSE,164,0.0,1.0,75,0.00,,,0.00,WUHU216DAVISVP2,2013-07-22 04:16:00,
2013-07-22 00:21:00,71.0,62.8,29.86,SSE,163,0.0,1.0,75,0.00,,,0.00,WUHU216DAVISVP2,2013-07-22 04:21:00,
2013-07-22 00:26:00,70.8,62.6,29.85,SSE,163,0.0,1.0,75,0.00,,,0.00,WUHU216DAVISVP2,2013-07-22 04:26:00,
2013-07-22 00:31:00,70.7,62.9,29.85,SSE,163,0.0,1.0,76,0.00,,,0.00,WUHU216DAVISVP2,2013-07-22 04:31:00,
2013-07-22 00:36:00,70.6,62.8,29.85,SSE,163,0.0,0.0,76,0.00,,,0.00,WUHU216DAVISVP2,2013-07-22 04:36:00,
2013-07-22 00:41:00,70.5,62.7,29.85,SSE,163,0.0,1.0,76,0.00,,,0.00,WUHU216DAVISVP2,2013-07-22 04:41:00,
2013-07-22 00:46:00,70.5,62.7,29.85,SSE,163,0.0,1.0,76,0.00,,,0.00,WUHU216DAVISVP2,2013-07-22 04:46:00,
2013-07-22 00:51:00,70.3,62.5,29.85,SSE,163,0.0,1.0,76,0.00,,,0.00,WUHU216DAVISVP2,2013-07-22 04:51:00,
2013-07-22 00:56:00,70.2,62.4,29.85,SSE,163,0.0,1.0,76,0.00,,,0.00,WUHU216DAVISVP2,2013-07-22 04:56:00,
2013-07-22 01:01:00,70.1,62.7,29.85,SSE,163,0.0,1.0,77,0.00,,,0.00,WUHU216DAVISVP2,2013-07-22 05:01:00,
2013-07-22 01:06:00,70.0,62.6,29.85,SSE,163,0.0,1.0,77,0.00,,,0.00,WUHU216DAVISVP2,2013-07-22 05:06:00,
2013-07-22 01:11:00,69.9,62.5,29.85,SSE,163,0.0,1.0,77,0.00,,,0.00,WUHU216DAVISVP2,2013-07-22 05:11:00,
2013-07-22 01:16:00,70.0,62.6,29.85,SSE,163,0.0,1.0,77,0.00,,,0.00,WUHU216DAVISVP2,2013-07-22 05:16:00,
2013-07-22 01:21:00,69.9,62.5,29.85,SSE,163,0.0,1.0,77,0.00,,,0.00,WUHU216DAVISVP2,2013-07-22 05:21:00,
2013-07-22 01:26:00,69.8,62.4,29.84,SSE,163,0.0,1.0,77,0.00,,,0.00,WUHU216DAVISVP2,2013-07-22 05:26:00,
2013-07-22 01:31:00,69.8,62.4,29.84,SSE,163,0.0,1.0,77,0.00,,,0.00,WUHU216DAVISVP2,2013-07-22 05:31:00,
2013-07-22 01:36:00,69.8,62.4,29.84,SSE,156,0.0,1.0,77,0.00,,,0.00,WUHU216DAVISVP2,2013-07-22 05:36:00,
2013-07-22 01:41:00,69.8,62.4,29.84,SSE,156,0.0,1.0,77,0.00,,,0.00,WUHU216DAVISVP2,2013-07-22 05:41:00,
2013-07-22 01:46:00,69.7,62.3,29.84,SSE,156,0.0,1.0,77,0.00,,,0.00,WUHU216DAVISVP2,2013-07-22 05:46:00,
2013-07-22 01:51:00,69.7,62.6,29.84,SSE,156,0.0,1.0,78,0.00,,,0.00,WUHU216DAVISVP2,2013-07-22 05:51:00,
2013-07-22 01:56:00,69.6,62.9,29.84,SSE,153,0.0,1.0,79,0.00,,,0.00,WUHU216DAVISVP2,2013-07-22 05:56:00,
2013-07-22 02:01:00,69.4,62.7,29.84,SSE,152,0.0,1.0,79,0.00,,,0.00,WUHU216DAVISVP2,2013-07-22 06:01:00,
2013-07-22 02:06:00,69.3,62.6,29.83,SSE,152,0.0,1.0,79,0.00,,,0.00,WUHU216DAVISVP2,2013-07-22 06:06:00,
2013-07-22 02:11:00,69.3,62.6,29.83,SSE,152,0.0,1.0,79,0.00,,,0.00,WUHU216DAVISVP2,2013-07-22 06:11:00,
2013-07-22 02:16:00,69.2,62.5,29.83,SSE,153,0.0,1.0,79,0.00,,,0.00,WUHU216DAVISVP2,2013-07-22 06:16:00,
2013-07-22 02:21:00,69.1,62.4,29.83,SSE,153,0.0,1.0,79,0.00,,,0.00,WUHU216DAVISVP2,2013-07-22 06:21:00,
2013-07-22 02:26:00,69.1,62.4,29.83,SSE,153,0.0,1.0,79,0.00,,,0.00,WUHU216DAVISVP2,2013-07-22 06:26:00,
2013-07-22 02:31:00,69.1,62.4,29.83,SSE,152,0.0,1.0,79,0.00,,,0.00,WUHU216DAVISVP2,2013-07-22 06:31:00,
2013-07-22 02:36:00,69.1,62.4,29.83,SE,133,0.0,1.0,79,0.00,,,0.00,WUHU216DAVISVP2,2013-07-22 06:36:00,
2013-07-22 02:41:00,69.0,62.7,29.83,SE,133,0.0,1.0,80,0.00,,,0.00,WUHU216DAVISVP2,2013-07-22 06:41:00,
2013-07-22 02:46:00,68.9,62.6,29.83,SE,133,0.0,1.0,80,0.00,,,0.00,WUHU216DAVISVP2,2013-07-22 06:46:00,
2013-07-22 02:51:00,68.9,62.6,29.83,SE,132,0.0,1.0,80,0.00,,,0.00,WUHU216DAVISVP2,2013-07-22 06:51:00,
2013-07-22 02:56:00,68.8,62.5,29.83,SE,133,0.0,1.0,80,0.00,,,0.00,WUHU216DAVISVP2,2013-07-22 06:56:00,
2013-07-22 03:01:00,68.7,62.4,29.83,SE,132,0.0,1.0,80,0.00,,,0.00,WUHU216DAVISVP2,2013-07-22 07:01:00,
2013-07-22 03:06:00,68.6,62.6,29.83,SE,133,0.0,0.0,81,0.00,,,0.00,WUHU216DAVISVP2,2013-07-22 07:06:00,
2013-07-22 03:11:00,68.5,62.5,29.83,SE,133,0.0,0.0,81,0.00,,,0.00,WUHU216DAVISVP2,2013-07-22 07:11:00,
2013-07-22 03:16:00,68.5,62.5,29.82,SE,133,0.0,0.0,81,0.00,,,0.00,WUHU216DAVISVP2,2013-07-22 07:16:00,
2013-07-22 03:21:00,68.4,62.7,29.82,SE,132,0.0,0.0,82,0.00,,,0.00,WUHU216DAVISVP2,2013-07-22 07:21:00,
2013-07-22 03:26:00,68.4,62.7,29.82,SE,132,0.0,1.0,82,0.00,,,0.00,WUHU216DAVISVP2,2013-07-22 07:26:00,
2013-07-22 03:31:00,68.3,62.6,29.82,SE,133,0.0,1.0,82,0.00,,,0.00,WUHU216DAVISVP2,2013-07-22 07:31:00,
2013-07-22 03:36:00,68.2,62.5,29.82,SE,133,0.0,1.0,82,0.00,,,0.00,WUHU216DAVISVP2,2013-07-22 07:36:00,
2013-07-22 03:41:00,68.2,62.5,29.81,SE,131,1.0,1.0,82,0.00,,,0.00,WUHU216DAVISVP2,2013-07-22 07:41:00,
2013-07-22 03:46:00,68.2,62.9,29.81,SE,131,0.0,1.0,83,0.00,,,0.00,WUHU216DAVISVP2,2013-07-22 07:46:00,
2013-07-22 03:51:00,68.1,62.8,29.81,SE,131,0.0,1.0,83,0.00,,,0.00,WUHU216DAVISVP2,2013-07-22 07:51:00,
2013-07-22 03:56:00,68.1,62.5,29.81,SE,131,0.0,1.0,82,0.00,,,0.00,WUHU216DAVISVP2,2013-07-22 07:56:00,
2013-07-22 04:01:00,68.1,62.5,29.81,SE,130,0.0,1.0,82,0.00,,,0.00,WUHU216DAVISVP2,2013-07-22 08:01:00,
2013-07-22 04:06:00,68.1,62.5,29.81,SE,131,0.0,1.0,82,0.00,,,0.00,WUHU216DAVISVP2,2013-07-22 08:06:00,
2013-07-22 04:11:00,68.2,62.5,29.80,SE,131,0.0,1.0,82,0.00,,,0.00,WUHU216DAVISVP2,2013-07-22 08:11:00,
2013-07-22 04:16:00,68.3,62.6,29.80,SE,131,0.0,1.0,82,0.00,,,0.00,WUHU216DAVISVP2,2013-07-22 08:16:00,
2013-07-22 04:21:00,68.3,62.6,29.80,SE,131,0.0,1.0,82,0.00,,,0.00,WUHU216DAVISVP2,2013-07-22 08:21:00,
2013-07-22 04:26:00,68.3,62.6,29.80,SE,130,0.0,1.0,82,0.00,,,0.00,WUHU216DAVISVP2,2013-07-22 08:26:00,
2013-07-22 04:31:00,68.3,62.6,29.80,SE,131,0.0,1.0,82,0.00,,,0.00,WUHU216DAVISVP2,2013-07-22 08:31:00,
2013-07-22 04:36:00,68.3,63.0,29.80,SE,130,0.0,1.0,83,0.00,,,0.00,WUHU216DAVISVP2,2013-07-22 08:36:00,
2013-07-22 04:41:00,68.2,62.9,29.80,SE,131,0.0,0.0,83,0.00,,,0.00,WUHU216DAVISVP2,2013-07-22 08:41:00,
2013-07-22 04:46:00,68.1,62.8,29.80,SE,131,0.0,0.0,83,0.00,,,0.00,WUHU216DAVISVP2,2013-07-22 08:46:00,
2013-07-22 04:51:00,68.1,63.1,29.80,SE,130,0.0,0.0,84,0.00,,,0.00,WUHU216DAVISVP2,2013-07-22 08:51:00,
2013-07-22 04:56:00,68.0,63.0,29.80,SE,130,0.0,0.0,84,0.00,,,0.00,WUHU216DAVISVP2,2013-07-22 08:56:00,
2013-07-22 05:01:00,68.0,63.0,29.80,SE,131,0.0,1.0,84,0.00,,,0.00,WUHU216DAVISVP2,2013-07-22 09:01:00,
2013-07-22 05:06:00,68.0,63.0,29.80,SE,136,0.0,1.0,84,0.00,,,0.00,WUHU216DAVISVP2,2013-07-22 09:06:00,
2013-07-22 05:11:00,68.1,63.1,29.80,SE,137,0.0,1.0,84,0.00,,,0.00,WUHU216DAVISVP2,2013-07-22 09:11:00,
2013-07-22 05:16:00,68.2,62.9,29.80,SSW,208,0.0,1.0,83,0.00,,,0.00,WUHU216DAVISVP2,2013-07-22 09:16:00,
2013-07-22 05:21:00,68.2,63.2,29.80,SSE,152,0.0,0.0,84,0.00,,,0.00,WUHU216DAVISVP2,2013-07-22 09:21:00,
2013-07-22 05:26:00,68.0,63.0,29.80,SSE,153,0.0,0.0,84,0.00,,,0.00,WUHU216DAVISVP2,2013-07-22 09:26:00,
2013-07-22 05:31:00,67.9,62.9,29.80,SSE,152,0.0,0.0,84,0.00,,,0.00,WUHU216DAVISVP2,2013-07-22 09:31:00,
2013-07-22 05:36:00,67.9,62.9,29.80,SSE,152,0.0,0.0,84,0.00,,,0.00,WUHU216DAVISVP2,2013-07-22 09:36:00,
2013-07-22 05:41:00,67.8,63.1,29.79,SSE,153,0.0,0.0,85,0.00,,,0.00,WUHU216DAVISVP2,2013-07-22 09:41:00,
2013-07-22 05:46:00,67.7,63.0,29.79,SSE,152,0.0,0.0,85,0.00,,,0.00,WUHU216DAVISVP2,2013-07-22 09:46:00,
2013-07-22 05:51:00,67.6,63.3,29.79,SSE,153,1.0,1.0,86,0.00,,,0.00,WUHU216DAVISVP2,2013-07-22 09:51:00,
2013-07-22 05:56:00,67.5,63.2,29.79,SSE,153,0.0,1.0,86,0.00,,,0.00,WUHU216DAVISVP2,2013-07-22 09:56:00,
2013-07-22 06:01:00,67.4,63.1,29.79,SSE,153,0.0,1.0,86,0.00,,,0.00,WUHU216DAVISVP2,2013-07-22 10:01:00,
2013-07-22 06:06:00,67.3,63.0,29.79,SSE,153,0.0,1.0,86,0.00,,,0.00,WUHU216DAVISVP2,2013-07-22 10:06:00,
2013-07-22 06:11:00,67.2,62.9,29.79,SSE,153,0.0,0.0,86,0.00,,,0.00,WUHU216DAVISVP2,2013-07-22 10:11:00,
2013-07-22 06:16:00,67.1,63.1,29.79,SSE,153,0.0,0.0,87,0.00,,,0.00,WUHU216DAVISVP2,2013-07-22 10:16:00,
2013-07-22 06:21:00,66.9,62.9,29.79,SSE,153,0.0,0.0,87,0.00,,,0.00,WUHU216DAVISVP2,2013-07-22 10:21:00,
2013-07-22 06:26:00,66.9,62.9,29.79,SSE,153,0.0,0.0,87,0.00,,,0.00,WUHU216DAVISVP2,2013-07-22 10:26:00,
2013-07-22 06:31:00,66.7,62.7,29.80,SSE,153,0.0,0.0,87,0.00,,,0.00,WUHU216DAVISVP2,2013-07-22 10:31:00,
2013-07-22 06:36:00,66.7,63.0,29.79,SSE,153,0.0,0.0,88,0.00,,,0.00,WUHU216DAVISVP2,2013-07-22 10:36:00,
2013-07-22 06:41:00,66.7,63.0,29.79,SSE,153,0.0,1.0,88,0.00,,,0.00,WUHU216DAVISVP2,2013-07-22 10:41:00,
2013-07-22 06:46:00,66.7,63.0,29.79,SSE,153,0.0,1.0,88,0.00,,,0.00,WUHU216DAVISVP2,2013-07-22 10:46:00,
2013-07-22 06:51:00,66.8,62.8,29.79,SSE,153,0.0,1.0,87,0.00,,,0.00,WUHU216DAVISVP2,2013-07-22 10:51:00,
2013-07-22 06:56:00,66.9,63.2,29.79,SSE,153,0.0,1.0,88,0.00,,,0.00,WUHU216DAVISVP2,2013-07-22 10:56:00,
2013-07-22 07:01:00,66.9,63.2,29.79,SSE,153,0.0,0.0,88,0.00,,,0.00,WUHU216DAVISVP2,2013-07-22 11:01:00,
2013-07-22 07:06:00,67.0,63.3,29.80,SSE,153,0.0,0.0,88,0.00,,,0.00,WUHU216DAVISVP2,2013-07-22 11:06:00,
2013-07-22 07:11:00,67.1,63.1,29.79,SSE,153,0.0,1.0,87,0.00,,,0.00,WUHU216DAVISVP2,2013-07-22 11:11:00,
2013-07-22 07:16:00,67.2,63.2,29.79,SSE,153,0.0,1.0,87,0.00,,,0.00,WUHU216DAVISVP2,2013-07-22 11:16:00,
2013-07-22 07:21:00,67.3,63.3,29.79,SSE,153,0.0,1.0,87,0.00,,,0.00,WUHU216DAVISVP2,2013-07-22 11:21:00,
2013-07-22 07:26:00,67.4,63.4,29.79,SSE,153,0.0,1.0,87,0.00,,,0.00,WUHU216DAVISVP2,2013-07-22 11:26:00,
2013-07-22 07:31:00,67.4,63.4,29.79,SSE,153,0.0,1.0,87,0.00,,,0.00,WUHU216DAVISVP2,2013-07-22 11:31:00,
2013-07-22 07:36:00,67.5,63.8,29.79,SSE,153,0.0,0.0,88,0.00,,,0.00,WUHU216DAVISVP2,2013-07-22 11:36:00,
2013-07-22 07:41:00,67.7,64.0,29.78,SSE,153,0.0,1.0,88,0.00,,,0.00,WUHU216DAVISVP2,2013-07-22 11:41:00,
2013-07-22 07:46:00,67.8,64.4,29.78,SE,128,1.0,1.0,89,0.00,,,0.00,WUHU216DAVISVP2,2013-07-22 11:46:00,
2013-07-22 07:51:00,68.0,64.6,29.78,SE,124,0.0,1.0,89,0.00,,,0.00,WUHU216DAVISVP2,2013-07-22 11:51:00,
2013-07-22 07:56:00,68.3,64.9,29.78,ESE,118,1.0,1.0,89,0.00,,,0.00,WUHU216DAVISVP2,2013-07-22 11:56:00,
2013-07-22 08:01:00,68.6,65.2,29.78,East,97,0.0,1.0,89,0.00,,,0.00,WUHU216DAVISVP2,2013-07-22 12:01:00,
2013-07-22 08:06:00,69.0,65.3,29.78,East,100,1.0,2.0,88,0.00,,,0.00,WUHU216DAVISVP2,2013-07-22 12:06:00,
2013-07-22 08:11:00,69.4,65.7,29.78,ESE,112,1.0,2.0,88,0.00,,,0.00,WUHU216DAVISVP2,2013-07-22 12:11:00,
2013-07-22 08:16:00,69.8,65.8,29.78,ESE,109,0.0,2.0,87,0.00,,,0.00,WUHU216DAVISVP2,2013-07-22 12:16:00,
2013-07-22 08:21:00,70.0,66.0,29.78,ESE,102,0.0,2.0,87,0.00,,,0.00,WUHU216DAVISVP2,2013-07-22 12:21:00,
2013-07-22 08:26:00,70.1,65.7,29.78,East,93,1.0,2.0,86,0.00,,,0.00,WUHU216DAVISVP2,2013-07-22 12:26:00,
2013-07-22 08:31:00,70.3,65.9,29.78,SE,146,0.0,2.0,86,0.00,,,0.00,WUHU216DAVISVP2,2013-07-22 12:31:00,
2013-07-22 08:36:00,70.5,66.1,29.78,East,98,1.0,2.0,86,0.00,,,0.00,WUHU216DAVISVP2,2013-07-22 12:36:00,
2013-07-22 08:41:00,70.7,66.3,29.78,SSW,203,1.0,2.0,86,0.00,,,0.00,WUHU216DAVISVP2,2013-07-22 12:41:00,
2013-07-22 08:46:00,71.0,66.3,29.78,SE,128,0.0,2.0,85,0.00,,,0.00,WUHU216DAVISVP2,2013-07-22 12:46:00,
2013-07-22 08:51:00,71.2,66.5,29.78,East,90,1.0,2.0,85,0.00,,,0.00,WUHU216DAVISVP2,2013-07-22 12:51:00,
2013-07-22 08:56:00,71.3,66.9,29.78,ESE,105,0.0,2.0,86,0.00,,,0.00,WUHU216DAVISVP2,2013-07-22 12:56:00,
2013-07-22 09:01:00,71.4,67.0,29.78,ESE,110,1.0,2.0,86,0.00,,,0.00,WUHU216DAVISVP2,2013-07-22 13:01:00,
2013-07-22 09:06:00,71.5,67.1,29.78,East,100,0.0,2.0,86,0.00,,,0.00,WUHU216DAVISVP2,2013-07-22 13:06:00,
2013-07-22 09:11:00,71.8,67.1,29.78,East,99,0.0,2.0,85,0.00,,,0.00,WUHU216DAVISVP2,2013-07-22 13:11:00,
2013-07-22 09:16:00,72.2,67.5,29.78,ESE,102,0.0,1.0,85,0.00,,,0.00,WUHU216DAVISVP2,2013-07-22 13:16:00,
2013-07-22 09:21:00,72.6,67.9,29.78,North,352,0.0,2.0,85,0.00,,,0.00,WUHU216DAVISVP2,2013-07-22 13:21:00,
2013-07-22 09:26:00,72.9,68.1,29.78,North,11,1.0,2.0,85,0.00,,,0.00,WUHU216DAVISVP2,2013-07-22 13:26:00,
2013-07-22 09:31:00,73.2,68.1,29.78,East,93,1.0,2.0,84,0.00,,,0.00,WUHU216DAVISVP2,2013-07-22 13:31:00,
2013-07-22 09:36:00,73.4,68.0,29.78,SE,132,0.0,2.0,83,0.00,,,0.00,WUHU216DAVISVP2,2013-07-22 13:36:00,
2013-07-22 09:41:00,73.6,68.5,29.78,ESE,103,0.0,2.0,84,0.00,,,0.00,WUHU216DAVISVP2,2013-07-22 13:41:00,
2013-07-22 09:46:00,73.9,68.8,29.78,East,91,1.0,1.0,84,0.00,,,0.00,WUHU216DAVISVP2,2013-07-22 13:46:00,
2013-07-22 09:51:00,74.1,68.7,29.78,SSW,199,0.0,2.0,83,0.00,,,0.00,WUHU216DAVISVP2,2013-07-22 13:51:00,
2013-07-22 09:56:00,74.3,68.5,29.77,ESE,123,0.0,2.0,82,0.00,,,0.00,WUHU216DAVISVP2,2013-07-22 13:56:00,
2013-07-22 10:01:00,74.4,69.0,29.78,North,1,0.0,1.0,83,0.00,,,0.00,WUHU216DAVISVP2,2013-07-22 14:01:00,
2013-07-22 10:06:00,74.7,68.8,29.77,North,8,0.0,1.0,82,0.00,,,0.00,WUHU216DAVISVP2,2013-07-22 14:06:00,
2013-07-22 10:11:00,75.0,68.8,29.78,East,93,1.0,1.0,81,0.00,,,0.00,WUHU216DAVISVP2,2013-07-22 14:11:00,
2013-07-22 10:16:00,75.7,69.5,29.77,ESE,116,0.0,1.0,81,0.00,,,0.00,WUHU216DAVISVP2,2013-07-22 14:16:00,
2013-07-22 10:21:00,76.4,69.2,29.77,WSW,248,3.0,4.0,78,0.00,,,0.00,WUHU216DAVISVP2,2013-07-22 14:21:00,
2013-07-22 10:26:00,76.7,69.5,29.77,SE,145,0.0,4.0,78,0.00,,,0.00,WUHU216DAVISVP2,2013-07-22 14:26:00,
2013-07-22 10:31:00,77.9,70.3,29.77,SE,138,2.0,4.0,77,0.00,,,0.00,WUHU216DAVISVP2,2013-07-22 14:31:00,
2013-07-22 10:36:00,78.2,69.8,29.77,South,191,0.0,5.0,75,0.00,,,0.00,WUHU216DAVISVP2,2013-07-22 14:36:00,
2013-07-22 10:41:00,78.5,68.9,29.77,ESE,117,3.0,5.0,72,0.00,,,0.00,WUHU216DAVISVP2,2013-07-22 14:41:00,
2013-07-22 10:46:00,78.3,68.7,29.77,East,93,0.0,5.0,72,0.00,,,0.00,WUHU216DAVISVP2,2013-07-22 14:46:00,
2013-07-22 10:51:00,78.3,68.7,29.77,WSW,249,0.0,5.0,72,0.00,,,0.00,WUHU216DAVISVP2,2013-07-22 14:51:00,
2013-07-22 10:56:00,78.7,68.7,29.77,East,94,0.0,4.0,71,0.00,,,0.00,WUHU216DAVISVP2,2013-07-22 14:56:00,
2013-07-22 11:01:00,78.9,68.9,29.77,East,100,1.0,4.0,71,0.00,,,0.00,WUHU216DAVISVP2,2013-07-22 15:01:00,
2013-07-22 11:06:00,79.1,68.7,29.77,ESE,108,2.0,4.0,70,0.00,,,0.00,WUHU216DAVISVP2,2013-07-22 15:06:00,
2013-07-22 11:11:00,78.9,68.5,29.77,ESE,103,0.0,3.0,70,0.00,,,0.00,WUHU216DAVISVP2,2013-07-22 15:11:00,
2013-07-22 11:16:00,79.2,67.5,29.77,SSW,207,0.0,2.0,67,0.00,,,0.00,WUHU216DAVISVP2,2013-07-22 15:16:00,
2013-07-22 11:21:00,79.1,67.0,29.77,SW,225,1.0,2.0,66,0.00,,,0.00,WUHU216DAVISVP2,2013-07-22 15:21:00,
2013-07-22 11:26:00,78.9,67.2,29.77,ESE,103,0.0,2.0,67,0.00,,,0.00,WUHU216DAVISVP2,2013-07-22 15:26:00,
2013-07-22 11:31:00,78.6,67.0,29.77,ESE,103,0.0,2.0,67,0.00,,,0.00,WUHU216DAVISVP2,2013-07-22 15:31:00,
2013-07-22 11:36:00,78.3,67.5,29.77,ESE,107,0.0,2.0,69,0.00,,,0.00,WUHU216DAVISVP2,2013-07-22 15:36:00,
2013-07-22 11:41:00,77.9,67.1,29.77,SSW,207,4.0,4.0,69,0.00,,,0.00,WUHU216DAVISVP2,2013-07-22 15:41:00,
2013-07-22 11:46:00,77.6,66.2,29.77,SE,136,1.0,4.0,68,0.00,,,0.00,WUHU216DAVISVP2,2013-07-22 15:46:00,
2013-07-22 11:51:00,77.4,66.4,29.77,SSE,153,1.0,4.0,69,0.00,,,0.00,WUHU216DAVISVP2,2013-07-22 15:51:00,
2013-07-22 11:56:00,77.3,67.2,29.77,ESE,102,0.0,4.0,71,0.00,,,0.00,WUHU216DAVISVP2,2013-07-22 15:56:00,
2013-07-22 12:01:00,77.1,66.1,29.77,South,169,0.0,3.0,69,0.00,,,0.00,WUHU216DAVISVP2,2013-07-22 16:01:00,
2013-07-22 12:06:00,77.1,66.8,29.77,SSW,201,1.0,3.0,70,0.00,,,0.00,WUHU216DAVISVP2,2013-07-22 16:06:00,
2013-07-22 12:11:00,77.2,66.9,29.77,SSW,210,3.0,4.0,70,0.00,,,0.00,WUHU216DAVISVP2,2013-07-22 16:11:00,
2013-07-22 12:16:00,77.1,67.2,29.77,ESE,119,0.0,5.0,71,0.00,,,0.00,WUHU216DAVISVP2,2013-07-22 16:16:00,
2013-07-22 12:21:00,77.5,67.2,29.77,SSE,152,0.0,5.0,70,0.00,,,0.00,WUHU216DAVISVP2,2013-07-22 16:21:00,
2013-07-22 12:26:00,78.1,67.3,29.77,SSW,203,1.0,5.0,69,0.00,,,0.00,WUHU216DAVISVP2,2013-07-22 16:26:00,
2013-07-22 12:31:00,78.0,66.8,29.77,SW,219,1.0,5.0,68,0.00,,,0.00,WUHU216DAVISVP2,2013-07-22 16:31:00,
2013-07-22 12:36:00,77.9,67.1,29.77,ESE,120,2.0,5.0,69,0.00,,,0.00,WUHU216DAVISVP2,2013-07-22 16:36:00,
2013-07-22 12:41:00,78.1,66.5,29.77,ESE,105,1.0,5.0,67,0.00,,,0.00,WUHU216DAVISVP2,2013-07-22 16:41:00,
2013-07-22 12:46:00,78.4,66.8,29.77,SW,219,1.0,5.0,67,0.00,,,0.00,WUHU216DAVISVP2,2013-07-22 16:46:00,
2013-07-22 12:51:00,78.3,66.7,29.77,SSW,201,1.0,5.0,67,0.00,,,0.00,WUHU216DAVISVP2,2013-07-22 16:51:00,
2013-07-22 12:56:00,78.4,66.3,29.77,East,98,1.0,5.0,66,0.00,,,0.00,WUHU216DAVISVP2,2013-07-22 16:56:00,
2013-07-22 13:01:00,78.3,66.7,29.77,ESE,120,1.0,5.0,67,0.00,,,0.00,WUHU216DAVISVP2,2013-07-22 17:01:00,
2013-07-22 13:06:00,78.4,67.0,29.77,WSW,250,1.0,6.0,68,0.00,,,0.00,WUHU216DAVISVP2,2013-07-22 17:06:00,
2013-07-22 13:11:00,78.2,67.2,29.77,SSE,148,1.0,6.0,69,0.00,,,0.00,WUHU216DAVISVP2,2013-07-22 17:11:00,
2013-07-22 13:16:00,78.3,67.9,29.77,SSW,205,3.0,6.0,70,0.00,,,0.00,WUHU216DAVISVP2,2013-07-22 17:16:00,
2013-07-22 13:21:00,78.1,66.5,29.77,SW,219,3.0,7.0,67,0.00,,,0.00,WUHU216DAVISVP2,2013-07-22 17:21:00,
2013-07-22 13:26:00,77.6,66.8,29.77,South,182,3.0,7.0,69,0.00,,,0.00,WUHU216DAVISVP2,2013-07-22 17:26:00,
2013-07-22 13:31:00,77.3,66.1,29.77,SW,217,7.0,7.0,68,0.00,,,0.00,WUHU216DAVISVP2,2013-07-22 17:31:00,
2013-07-22 13:36:00,77.2,67.3,29.76,SSW,195,1.0,8.0,71,0.00,,,0.00,WUHU216DAVISVP2,2013-07-22 17:36:00,
2013-07-22 13:41:00,77.5,67.2,29.76,West,277,1.0,8.0,70,0.00,,,0.00,WUHU216DAVISVP2,2013-07-22 17:41:00,
2013-07-22 13:46:00,77.8,67.0,29.76,SSW,208,1.0,8.0,69,0.00,,,0.00,WUHU216DAVISVP2,2013-07-22 17:46:00,
2013-07-22 13:51:00,78.1,67.3,29.76,SSW,204,1.0,5.0,69,0.00,,,0.00,WUHU216DAVISVP2,2013-07-22 17:51:00,
2013-07-22 13:56:00,77.7,66.5,29.76,SSW,204,3.0,6.0,68,0.00,,,0.00,WUHU216DAVISVP2,2013-07-22 17:56:00,
2013-07-22 14:02:00,77.5,66.7,29.76,SE,128,1.0,6.0,69,0.00,,,0.00,WUHU216DAVISVP2,2013-07-22 18:02:00,
2013-07-22 14:07:00,77.7,66.7,29.76,ESE,123,1.0,6.0,69,0.00,,,0.00,WUHU216DAVISVP2,2013-07-22 18:07:00,
2013-07-22 14:12:00,77.7,66.7,29.75,SSW,210,0.0,6.0,69,0.00,,,0.00,WUHU216DAVISVP2,2013-07-22 18:12:00,
2013-07-22 14:17:00,77.9,66.9,29.75,ESE,107,0.0,3.0,69,0.00,,,0.00,WUHU216DAVISVP2,2013-07-22 18:17:00,
2013-07-22 14:23:00,78.0,67.2,29.75,ESE,109,3.0,3.0,69,0.00,,,0.00,WUHU216DAVISVP2,2013-07-22 18:23:00,
2013-07-22 14:28:00,77.8,66.6,29.75,SE,142,1.0,4.0,68,0.00,,,0.00,WUHU216DAVISVP2,2013-07-22 18:28:00,
2013-07-22 14:34:00,77.7,66.1,29.75,SE,131,0.0,4.0,67,0.00,,,0.00,WUHU216DAVISVP2,2013-07-22 18:34:00,
2013-07-22 14:39:00,78.0,67.6,29.75,SE,131,0.0,3.0,70,0.00,,,0.00,WUHU216DAVISVP2,2013-07-22 18:39:00,
2013-07-22 14:44:00,78.1,66.5,29.74,SE,124,1.0,2.0,67,0.00,,,0.00,WUHU216DAVISVP2,2013-07-22 18:44:00,
2013-07-22 14:49:00,77.8,66.6,29.74,SSW,205,1.0,4.0,68,0.00,,,0.00,WUHU216DAVISVP2,2013-07-22 18:49:00,
2013-07-22 14:55:00,77.9,67.9,29.74,SE,145,1.0,4.0,71,0.00,,,0.00,WUHU216DAVISVP2,2013-07-22 18:55:00,
2013-07-22 15:00:00,77.9,66.7,29.74,SSE,160,0.0,4.0,68,0.00,,,0.00,WUHU216DAVISVP2,2013-07-22 19:00:00,
2013-07-22 15:05:00,77.9,66.1,29.74,ESE,102,1.0,4.0,67,0.00,,,0.00,WUHU216DAVISVP2,2013-07-22 19:05:00,
2013-07-22 15:10:00,78.2,67.0,29.74,South,187,0.0,4.0,68,0.00,,,0.00,WUHU216DAVISVP2,2013-07-22 19:10:00,
2013-07-22 15:15:00,78.1,65.8,29.74,East,79,1.0,4.0,66,0.00,,,0.00,WUHU216DAVISVP2,2013-07-22 19:15:00,
2013-07-22 15:20:00,78.0,66.2,29.74,SW,219,2.0,3.0,67,0.00,,,0.00,WUHU216DAVISVP2,2013-07-22 19:20:00,
2013-07-22 15:25:00,77.6,66.2,29.74,West,273,0.0,3.0,68,0.00,,,0.00,WUHU216DAVISVP2,2013-07-22 19:25:00,
2013-07-22 15:31:00,77.8,66.2,29.74,ENE,67,1.0,3.0,67,0.00,,,0.00,WUHU216DAVISVP2,2013-07-22 19:31:00,
2013-07-22 15:36:00,77.6,66.0,29.73,SE,125,0.0,3.0,67,0.00,,,0.00,WUHU216DAVISVP2,2013-07-22 19:36:00,
2013-07-22 15:41:00,77.7,66.5,29.73,ESE,104,1.0,3.0,68,0.00,,,0.00,WUHU216DAVISVP2,2013-07-22 19:41:00,
2013-07-22 15:46:00,77.9,65.9,29.73,SE,145,0.0,2.0,66,0.00,,,0.00,WUHU216DAVISVP2,2013-07-22 19:46:00,
2013-07-22 15:51:00,78.1,66.5,29.73,West,269,1.0,3.0,67,0.00,,,0.00,WUHU216DAVISVP2,2013-07-22 19:51:00,
2013-07-22 15:56:00,78.1,66.0,29.73,ESE,112,0.0,5.0,66,0.00,,,0.00,WUHU216DAVISVP2,2013-07-22 19:56:00,
2013-07-22 16:01:00,78.5,66.9,29.73,SSW,200,0.0,5.0,67,0.00,,,0.00,WUHU216DAVISVP2,2013-07-22 20:01:00,
2013-07-22 16:06:00,78.7,66.2,29.73,ESE,115,1.0,5.0,65,0.00,,,0.00,WUHU216DAVISVP2,2013-07-22 20:06:00,
2013-07-22 16:11:00,78.7,65.7,29.73,East,95,2.0,5.0,64,0.00,,,0.00,WUHU216DAVISVP2,2013-07-22 20:11:00,
2013-07-22 16:16:00,78.5,65.1,29.73,SSW,203,1.0,4.0,63,0.00,,,0.00,WUHU216DAVISVP2,2013-07-22 20:16:00,
2013-07-22 16:17:00,78.5,65.1,29.73,SSW,203,0.0,4.0,63,0.00,,,0.00,WUHU216DAVISVP2,2013-07-22 20:17:00,
2013-07-22 16:22:00,78.3,64.9,29.72,SSW,212,1.0,3.0,63,0.00,,,0.00,WUHU216DAVISVP2,2013-07-22 20:22:00,
2013-07-22 16:27:00,78.7,65.7,29.72,WSW,248,1.0,3.0,64,0.00,,,0.00,WUHU216DAVISVP2,2013-07-22 20:27:00,
2013-07-22 16:32:00,78.8,64.9,29.72,SSW,210,2.0,4.0,62,0.00,,,0.00,WUHU216DAVISVP2,2013-07-22 20:32:00,
2013-07-22 16:37:00,79.1,65.7,29.72,ESE,121,1.0,4.0,63,0.00,,,0.00,WUHU216DAVISVP2,2013-07-22 20:37:00,
2013-07-22 16:42:00,79.5,65.1,29.72,SW,222,3.0,4.0,61,0.00,,,0.00,WUHU216DAVISVP2,2013-07-22 20:42:00,
2013-07-22 16:43:00,79.4,63.8,29.72,East,101,1.0,4.0,59,0.00,,,0.00,WUHU216DAVISVP2,2013-07-22 20:43:00,
2013-07-22 16:48:00,79.7,64.3,29.72,SSW,208,2.0,4.0,59,0.00,,,0.00,WUHU216DAVISVP2,2013-07-22 20:48:00,
2013-07-22 16:53:00,80.0,64.6,29.72,SSW,210,0.0,3.0,59,0.00,,,0.00,WUHU216DAVISVP2,2013-07-22 20:53:00,
2013-07-22 16:58:00,79.6,64.2,29.72,West,270,1.0,3.0,59,0.00,,,0.00,WUHU216DAVISVP2,2013-07-22 20:58:00,
2013-07-22 17:03:00,79.4,64.8,29.71,WNW,285,1.0,3.0,61,0.00,,,0.00,WUHU216DAVISVP2,2013-07-22 21:03:00,
2013-07-22 17:08:00,79.4,64.5,29.71,SSW,210,1.0,5.0,60,0.00,,,0.00,WUHU216DAVISVP2,2013-07-22 21:08:00,
2013-07-22 17:13:00,79.6,65.2,29.71,ESE,116,0.0,5.0,61,0.00,,,0.00,WUHU216DAVISVP2,2013-07-22 21:13:00,
2013-07-22 17:18:00,79.2,65.3,29.71,NNE,30,3.0,5.0,62,0.00,,,0.00,WUHU216DAVISVP2,2013-07-22 21:18:00,
2013-07-22 17:23:00,78.4,65.0,29.70,NE,40,0.0,5.0,63,0.00,,,0.00,WUHU216DAVISVP2,2013-07-22 21:23:00,
2013-07-22 17:28:00,78.3,65.4,29.70,ESE,110,0.0,4.0,64,0.00,,,0.00,WUHU216DAVISVP2,2013-07-22 21:28:00,
2013-07-22 17:33:00,78.4,64.3,29.70,SSW,203,0.0,4.0,62,0.00,,,0.00,WUHU216DAVISVP2,2013-07-22 21:33:00,
2013-07-22 17:38:00,78.6,64.3,29.70,East,96,1.0,3.0,61,0.00,,,0.00,WUHU216DAVISVP2,2013-07-22 21:38:00,
2013-07-22 17:43:00,78.6,65.2,29.70,West,271,1.0,2.0,63,0.00,,,0.00,WUHU216DAVISVP2,2013-07-22 21:43:00,
2013-07-22 17:48:00,79.3,65.9,29.69,West,271,0.0,3.0,63,0.00,,,0.00,WUHU216DAVISVP2,2013-07-22 21:48:00,
2013-07-22 17:53:00,79.5,64.9,29.69,WSW,253,2.0,3.0,61,0.00,,,0.00,WUHU216DAVISVP2,2013-07-22 21:53:00,
2013-07-22 17:58:00,79.2,64.1,29.69,West,266,1.0,4.0,60,0.00,,,0.00,WUHU216DAVISVP2,2013-07-22 21:58:00,
2013-07-22 18:03:00,79.6,65.2,29.69,ESE,104,1.0,4.0,61,0.00,,,0.00,WUHU216DAVISVP2,2013-07-22 22:03:00,
2013-07-22 18:08:00,79.6,64.2,29.69,ESE,102,1.0,4.0,59,0.00,,,0.00,WUHU216DAVISVP2,2013-07-22 22:08:00,
2013-07-22 18:13:00,79.5,64.6,29.68,SSE,150,1.0,4.0,60,0.00,,,0.00,WUHU216DAVISVP2,2013-07-22 22:13:00,
2013-07-22 18:18:00,79.4,63.6,29.68,East,84,0.0,2.0,58,0.00,,,0.00,WUHU216DAVISVP2,2013-07-22 22:18:00,
2013-07-22 18:23:00,79.4,63.8,29.68,WSW,255,0.0,2.0,59,0.00,,,0.00,WUHU216DAVISVP2,2013-07-22 22:23:00,
2013-07-22 18:28:00,79.4,63.8,29.68,SSW,210,0.0,2.0,59,0.00,,,0.00,WUHU216DAVISVP2,2013-07-22 22:28:00,
2013-07-22 18:33:00,79.2,63.1,29.68,ESE,110,1.0,2.0,58,0.00,,,0.00,WUHU216DAVISVP2,2013-07-22 22:33:00,
2013-07-22 18:38:00,79.0,63.7,29.68,East,98,0.0,2.0,59,0.00,,,0.00,WUHU216DAVISVP2,2013-07-22 22:38:00,
2013-07-22 18:43:00,79.0,63.4,29.68,WSW,245,1.0,3.0,59,0.00,,,0.00,WUHU216DAVISVP2,2013-07-22 22:43:00,
2013-07-22 18:48:00,79.2,63.4,29.68,SSW,210,0.0,3.0,58,0.00,,,0.00,WUHU216DAVISVP2,2013-07-22 22:48:00,
2013-07-22 18:53:00,79.2,62.7,29.68,SSW,212,2.0,3.0,57,0.00,,,0.00,WUHU216DAVISVP2,2013-07-22 22:53:00,
2013-07-22 18:58:00,79.2,62.9,29.67,WNW,282,0.0,3.0,57,0.00,,,0.00,WUHU216DAVISVP2,2013-07-22 22:58:00,
2013-07-22 19:03:00,79.3,64.0,29.67,SW,231,0.0,3.0,59,0.00,,,0.00,WUHU216DAVISVP2,2013-07-22 23:03:00,
2013-07-22 19:08:00,79.3,63.5,29.67,SSW,205,0.0,3.0,58,0.00,,,0.00,WUHU216DAVISVP2,2013-07-22 23:08:00,
2013-07-22 19:13:00,79.2,63.9,29.67,West,269,0.0,3.0,59,0.00,,,0.00,WUHU216DAVISVP2,2013-07-22 23:13:00,
2013-07-22 19:18:00,79.2,63.4,29.67,West,259,1.0,3.0,58,0.00,,,0.00,WUHU216DAVISVP2,2013-07-22 23:18:00,
2013-07-22 19:23:00,79.1,63.3,29.67,SSE,158,1.0,3.0,58,0.00,,,0.00,WUHU216DAVISVP2,2013-07-22 23:23:00,
2013-07-22 19:28:00,79.0,63.7,29.67,ESE,111,1.0,2.0,59,0.00,,,0.00,WUHU216DAVISVP2,2013-07-22 23:28:00,
2013-07-22 19:33:00,78.7,63.4,29.67,SSW,207,1.0,4.0,59,0.00,,,0.00,WUHU216DAVISVP2,2013-07-22 23:33:00,
2013-07-22 19:38:00,78.7,63.9,29.67,SSW,208,0.0,4.0,60,0.00,,,0.00,WUHU216DAVISVP2,2013-07-22 23:38:00,
2013-07-22 19:43:00,78.5,63.7,29.67,SSW,204,2.0,4.0,60,0.00,,,0.00,WUHU216DAVISVP2,2013-07-22 23:43:00,
2013-07-22 19:48:00,78.3,64.4,29.67,SW,217,1.0,4.0,62,0.00,,,0.00,WUHU216DAVISVP2,2013-07-22 23:48:00,
2013-07-22 19:53:00,78.2,65.3,29.67,South,183,4.0,4.0,64,0.00,,,0.00,WUHU216DAVISVP2,2013-07-22 23:53:00,
2013-07-22 19:58:00,78.0,65.1,29.67,SW,229,1.0,4.0,64,0.00,,,0.00,WUHU216DAVISVP2,2013-07-22 23:58:00,
2013-07-22 20:03:00,77.8,65.3,29.67,WSW,249,3.0,4.0,65,0.00,,,0.00,WUHU216DAVISVP2,2013-07-23 00:03:00,
2013-07-22 20:08:00,77.6,64.9,29.67,WSW,257,0.0,4.0,65,0.00,,,0.00,WUHU216DAVISVP2,2013-07-23 00:08:00,
2013-07-22 20:13:00,77.5,65.0,29.66,WSW,248,0.0,3.0,65,0.00,,,0.00,WUHU216DAVISVP2,2013-07-23 00:13:00,
2013-07-22 20:18:00,77.4,65.4,29.67,South,173,1.0,3.0,66,0.00,,,0.00,WUHU216DAVISVP2,2013-07-23 00:18:00,
2013-07-22 20:23:00,77.3,65.3,29.67,WSW,250,1.0,2.0,66,0.00,,,0.00,WUHU216DAVISVP2,2013-07-23 00:23:00,
2013-07-22 20:28:00,77.0,65.0,29.67,West,276,0.0,2.0,66,0.00,,,0.00,WUHU216DAVISVP2,2013-07-23 00:28:00,
2013-07-22 20:33:00,76.9,65.3,29.66,SW,224,0.0,2.0,67,0.00,,,0.00,WUHU216DAVISVP2,2013-07-23 00:33:00,
2013-07-22 20:38:00,76.8,65.9,29.66,SW,225,0.0,2.0,69,0.00,,,0.00,WUHU216DAVISVP2,2013-07-23 00:38:00,
2013-07-22 20:43:00,76.4,65.7,29.66,SW,225,0.0,2.0,69,0.00,,,0.00,WUHU216DAVISVP2,2013-07-23 00:43:00,
2013-07-22 20:48:00,76.0,65.7,29.66,SSW,211,1.0,1.0,70,0.00,,,0.00,WUHU216DAVISVP2,2013-07-23 00:48:00,
2013-07-22 20:53:00,75.9,65.8,29.66,SW,221,0.0,1.0,71,0.00,,,0.00,WUHU216DAVISVP2,2013-07-23 00:53:00,
2013-07-22 20:58:00,75.5,65.6,29.66,SW,221,1.0,1.0,71,0.00,,,0.00,WUHU216DAVISVP2,2013-07-23 00:58:00,
2013-07-22 21:03:00,75.3,65.4,29.66,SW,221,0.0,1.0,71,0.00,,,0.00,WUHU216DAVISVP2,2013-07-23 01:03:00,
2013-07-22 21:08:00,75.1,65.6,29.66,SW,217,1.0,3.0,72,0.00,,,0.00,WUHU216DAVISVP2,2013-07-23 01:08:00,
2013-07-22 21:13:00,75.0,65.5,29.67,SSW,204,1.0,3.0,72,0.00,,,0.00,WUHU216DAVISVP2,2013-07-23 01:13:00,
2013-07-22 21:18:00,74.9,65.8,29.67,SSW,204,0.0,3.0,73,0.00,,,0.00,WUHU216DAVISVP2,2013-07-23 01:18:00,
2013-07-22 21:23:00,74.7,65.3,29.67,SW,215,0.0,3.0,72,0.00,,,0.00,WUHU216DAVISVP2,2013-07-23 01:23:00,
2013-07-22 21:28:00,74.5,65.4,29.67,SW,222,0.0,2.0,73,0.00,,,0.00,WUHU216DAVISVP2,2013-07-23 01:28:00,
2013-07-22 21:33:00,74.3,65.3,29.67,SSW,204,1.0,2.0,73,0.00,,,0.00,WUHU216DAVISVP2,2013-07-23 01:33:00,
2013-07-22 21:38:00,74.1,65.3,29.67,SSW,202,0.0,2.0,74,0.00,,,0.00,WUHU216DAVISVP2,2013-07-23 01:38:00,
2013-07-22 21:43:00,73.9,65.3,29.67,SSW,205,0.0,2.0,74,0.00,,,0.00,WUHU216DAVISVP2,2013-07-23 01:43:00,
2013-07-22 21:48:00,73.6,65.2,29.68,SSW,195,0.0,2.0,75,0.00,,,0.00,WUHU216DAVISVP2,2013-07-23 01:48:00,
2013-07-22 21:53:00,73.3,65.3,29.68,SSW,197,0.0,1.0,76,0.00,,,0.00,WUHU216DAVISVP2,2013-07-23 01:53:00,
2013-07-22 21:58:00,73.0,65.1,29.68,SW,218,0.0,2.0,76,0.00,,,0.00,WUHU216DAVISVP2,2013-07-23 01:58:00,
2013-07-22 22:03:00,72.7,65.2,29.68,SSW,211,0.0,2.0,77,0.00,,,0.00,WUHU216DAVISVP2,2013-07-23 02:03:00,
2013-07-22 22:08:00,72.5,65.4,29.68,SSW,205,1.0,2.0,78,0.00,,,0.00,WUHU216DAVISVP2,2013-07-23 02:08:00,
2013-07-22 22:13:00,72.4,65.3,29.68,SSW,204,0.0,1.0,78,0.00,,,0.00,WUHU216DAVISVP2,2013-07-23 02:13:00,
2013-07-22 22:18:00,72.2,65.4,29.68,SSW,204,0.0,1.0,79,0.00,,,0.00,WUHU216DAVISVP2,2013-07-23 02:18:00,
2013-07-22 22:23:00,72.0,65.2,29.68,SSW,205,1.0,1.0,79,0.00,,,0.00,WUHU216DAVISVP2,2013-07-23 02:23:00,
2013-07-22 22:28:00,71.9,65.5,29.69,SSW,212,0.0,2.0,80,0.00,,,0.00,WUHU216DAVISVP2,2013-07-23 02:28:00,
2013-07-22 22:33:00,71.8,65.4,29.68,SSW,212,0.0,2.0,80,0.00,,,0.00,WUHU216DAVISVP2,2013-07-23 02:33:00,
2013-07-22 22:38:00,71.6,65.5,29.68,SSW,202,0.0,2.0,81,0.00,,,0.00,WUHU216DAVISVP2,2013-07-23 02:38:00,
2013-07-22 22:43:00,71.4,65.3,29.68,SSW,203,1.0,2.0,81,0.00,,,0.00,WUHU216DAVISVP2,2013-07-23 02:43:00,
2013-07-22 22:48:00,71.2,65.4,29.68,SSW,202,1.0,2.0,82,0.00,,,0.00,WUHU216DAVISVP2,2013-07-23 02:48:00,
2013-07-22 22:53:00,71.0,65.3,29.68,SSW,203,0.0,2.0,82,0.00,,,0.00,WUHU216DAVISVP2,2013-07-23 02:53:00,
2013-07-22 22:58:00,70.8,65.4,29.68,SSW,202,0.0,2.0,83,0.00,,,0.00,WUHU216DAVISVP2,2013-07-23 02:58:00,
2013-07-22 23:03:00,70.7,65.3,29.68,SSW,203,0.0,2.0,83,0.00,,,0.00,WUHU216DAVISVP2,2013-07-23 03:03:00,
2013-07-22 23:08:00,70.4,65.0,29.68,SW,215,0.0,2.0,83,0.00,,,0.00,WUHU216DAVISVP2,2013-07-23 03:08:00,
2013-07-22 23:13:00,70.2,65.2,29.68,SW,214,0.0,2.0,84,0.00,,,0.00,WUHU216DAVISVP2,2013-07-23 03:13:00,
2013-07-22 23:18:00,70.1,65.1,29.68,South,190,1.0,2.0,84,0.00,,,0.00,WUHU216DAVISVP2,2013-07-23 03:18:00,
2013-07-22 23:23:00,70.0,65.3,29.67,South,191,0.0,1.0,85,0.00,,,0.00,WUHU216DAVISVP2,2013-07-23 03:23:00,
2013-07-22 23:28:00,69.8,65.1,29.67,SSW,192,0.0,1.0,85,0.00,,,0.00,WUHU216DAVISVP2,2013-07-23 03:28:00,
2013-07-22 23:33:00,69.8,65.4,29.67,SSW,201,0.0,1.0,86,0.00,,,0.00,WUHU216DAVISVP2,2013-07-23 03:33:00,
2013-07-22 23:38:00,69.7,65.3,29.67,SSW,194,1.0,1.0,86,0.00,,,0.00,WUHU216DAVISVP2,2013-07-23 03:38:00,
2013-07-22 23:43:00,69.7,65.7,29.68,SSW,205,1.0,2.0,87,0.00,,,0.00,WUHU216DAVISVP2,2013-07-23 03:43:00,
2013-07-22 23:48:00,69.7,65.7,29.68,SW,222,1.0,2.0,87,0.00,,,0.00,WUHU216DAVISVP2,2013-07-23 03:48:00,
2013-07-22 23:53:00,69.6,65.6,29.69,SW,221,0.0,3.0,87,0.00,,,0.00,WUHU216DAVISVP2,2013-07-23 03:53:00,
2013-07-22 23:58:00,69.7,66.0,29.69,West,259,1.0,3.0,88,0.00,,,0.00,WUHU216DAVISVP2,2013-07-23 03:58:00,